AirNav   Free Bose Alto or Rondo audio sunglasses
 
 786 users online  

51MI Cass Lake-Cove Island Seaplane Base
Pontiac, Michigan, USA

GOING TO PONTIAC?


FAA INFORMATION EFFECTIVE 05 NOVEMBER 2020

Location

FAA Identifier: 51MI
Lat/Long: 42-36-58.1170N 083-21-21.7710W
42-36.968617N 083-21.362850W
42.6161436,-83.3560475
(estimated)
Elevation: 990 ft. / 302 m (estimated)
Variation: 06W (1990)
From city: 4 miles W of PONTIAC, MI
Time zone: UTC -5 (UTC -4 during Daylight Saving Time)
Zip code: 48324

Seaplane Base Operations

Seaplane Base use: Private use. Permission required prior to landing
Activation date: 03/1994
Control tower: no
ARTCC: CLEVELAND CENTER
FSS: LANSING FLIGHT SERVICE STATION
Attendance: UNATNDD
Segmented circle: no

Seaplane Base Communications

WX ASOS at PTK (4 nm NW): 125.025 (248-886-8551)
WX AWOS-3 at VLL (9 nm SE): 119.475 (248-288-4649)
WX ASOS at DET (20 nm SE): PHONE 313-371-9696

Nearby radio navigation aids

VOR radial/distance  VOR name  Freq  Var
SVMr043/16.3SALEM VORTAC114.3003W
DXOr007/24.2DETROIT VOR/DME113.4006W
FNTr147/27.2FLINT VORTAC116.9006W
CRLr011/34.4CARLETON VOR/DME115.7003W

 
NDB name  Hdg/Dist  Freq  Var  ID
GROSSE ILE351/32.241907WRYS .-. -.-- ...

Seaplane Base Services

Runway Information

Runway 9W/27W

Dimensions: 2000 x 100 ft. / 610 x 30 m
Surface: water
RUNWAY 9W  RUNWAY 27W
Traffic pattern: leftleft

Seaplane Base Ownership and Management from official FAA records

Ownership: Privately-owned
Owner: CONNIE HYNES
560 SCOTTS BAY DR
INDIAN RIVER, MI 99749
Phone 231-844-2147
Manager: CONNIE HYNES
560 SCOTTS BAY DR
INDIAN RIVER, MI 99749
Phone 231-844-2147

Seaplane Base Operational Statistics

Aircraft based on the field: 1
Single engine airplanes: 1
    

Additional Remarks

TAKEOFFS & LANDINGS RESTRICTED IN COES BAY; USE LARGE PORTION OF CASS LAKE FOR TAKEOFFS & LANDINGS; STEP TAXI PERMITTED IN COES BAY TO RAMP ON COVE ISLAND.
FOR CD CTC DETROIT APCH AT 800-499-8181.

Instrument Procedures

There are no published instrument procedures at 51MI.

Some nearby airports with instrument procedures:

KPTK - Oakland County International Airport (4 nm NW)
KVLL - Oakland/Troy Airport (9 nm SE)
Y47 - Oakland Southwest Airport (14 nm SW)
1D2 - Canton-Plymouth-Mettetal Airport (17 nm S)
KDET - Coleman A Young Municipal Airport (20 nm SE)
 
Loc | Ops | Rwys | IFR | FBO | Links
Com | Nav | Svcs | Stats | Notes
Area around 51MI (Cass Lake-Cove Island Seaplane Base)
 
Road maps at: MapQuest Bing Google
 
Aerial photo
No photo
 
Sectional chart

 
Airport distance calculator
Flying to Cass Lake-Cove Island Seaplane Base? Find the distance to fly.

From to 51MI

Sunrise and sunset
Times for 26-Nov-2020
 Local
(UTC-5)
 Zulu
(UTC)
Morning civil twilight07:0912:09
Sunrise07:4012:40
Sunset17:0222:02
Evening civil twilight17:3322:33

Current date and time
Zulu (UTC)  26-Nov-2020 22:57:08
Local (UTC-5)  26-Nov-2020 17:57:08
 
METAR
KPTK 
4nm NW 
262129Z 23004KT 10SM SCT008 BKN014 OVC020 07/04 A2999 RMK AO2 T00670044
KVLL 
9nm SE 
262135Z AUTO 24005KT 10SM OVC029 08/05 A3002 RMK AO2 T00770053
KDET 
20nm SE 
262053Z 26010KT 10SM FEW019 OVC035 09/04 A3000 RMK AO2 SLP160 T00890044 53012
TAF
KPTK 
4nm NW 
261837Z 2619/2718 26010KT P6SM OVC010 FM262200 26010KT P6SM OVC015 FM270800 22005KT 6SM BR OVC015 FM271400 24010KT P6SM OVC020
KDET 
20nm SE 
261728Z 2618/2718 26010KT P6SM OVC015 FM262000 24010KT P6SM OVC020 FM270800 22005KT 6SM BR OVC015 FM271400 24010KT P6SM OVC025
NOTAMs
Click for the latest NOTAMs
NOTAMs are issued by the DoD/FAA and will open in a separate window not controlled by AirNav.

 

 
 

Would you like to see your business listed on this page?

 If your business provides an interesting product or service to pilots, flight crews, aircraft, or users of the Cass Lake-Cove Island Seaplane Base, you should consider listing it here.  To start the listing process, click on the button below
 
Add a business
 

Other Pages about Cass Lake-Cove Island Seaplane Base

Update a link
 
Copyright © AirNav, LLC. All rights reserved. Privacy Policy  Contact